Regional Weather Roundup
Issued by NWS

Home | Current Version | Previous Version | Text Only | Print | Product List | Glossary On
Versions: 1 2 3 4 5 6 7 8 9 10 11 12 13 14 15 16 17 18 19 20 21 22 23 24 25 26 27 28 29 30 31 32 33 34 35 36 37 38 39 40 41 42 43 44 45 46 47 48 49 50
000
ASUS43 KMKX 121820
RWRWI

WISCONSIN REGIONAL WEATHER ROUNDUP
NATIONAL WEATHER SERVICE MILWAUKEE/SULLIVAN WI
1200 PM CST TUE DEC 12 2017

NOTE: "FAIR" INDICATES FEW OR NO CLOUDS BELOW 12,000 FEET WITH NO
SIGNIFICANT WEATHER AND/OR OBSTRUCTIONS TO VISIBILITY.

WIZ001-002-006>008-014>016-023>028-121900-
NORTHWEST WISCONSIN

CITY           SKY/WX    TMP DP  RH WIND       PRES   REMARKS
SUPERIOR ARPT  CLOUDY    10   2  71 S5        30.11F WCI   1
6HR MIN TEMP:   3; 6HR MAX TEMP:  10;

ASHLAND        MOSUNNY   10   3  73 SW9       30.08F WCI  -3
6HR MIN TEMP:   0; 6HR MAX TEMP:  11;

HAYWARD        CLOUDY     9  -2  61 VRB5      30.06F WCI   1
6HR MIN TEMP:   0; 6HR MAX TEMP:   9;

SIREN          CLOUDY    10   3  74 CALM      30.09F
6HR MIN TEMP:   1; 6HR MAX TEMP:  10;

CUMBERLAND     CLOUDY    10   0  61 CALM      30.07F
RICE LAKE      CLOUDY    11   1  65 CALM      30.10F
6HR MIN TEMP:   2; 6HR MAX TEMP:  11;

CHETEK         CLOUDY    10   1  66 CALM      30.10F
6HR MIN TEMP:   3; 6HR MAX TEMP:  10;

LADYSMITH      CLOUDY    11   0  60 W8        30.09F WCI   0
6HR MIN TEMP:   2; 6HR MAX TEMP:  12;

EAU CLAIRE     CLOUDY    11   2  67 W9        30.11F WCI  -2
6HR MIN TEMP:   2; 6HR MAX TEMP:  11;

MENOMONIE      CLOUDY    13   3  63 SW5       30.13F WCI   5
6HR MIN TEMP:   5; 6HR MAX TEMP:  13;

NEW RICHMOND   CLOUDY    14   2  60 S3        30.10F
6HR MIN TEMP:   2; 6HR MAX TEMP:  14;

OSCEOLA        CLOUDY    11   3  69 CALM      30.14F
6HR MIN TEMP:   2; 6HR MAX TEMP:  12;

$$

WIZ003>005-009-010-017-018-121900-
NORTH CENTRAL WISCONSIN

CITY           SKY/WX    TMP DP  RH WIND       PRES   REMARKS
MANITOWISH WTR CLOUDY     8   2  76 NW8       29.97F HAZE    WCI  -4
6HR MIN TEMP:   6; 6HR MAX TEMP:   8;

ARBOR VITAE    CLOUDY    11   4  73 NW7       29.98S WCI   1
6HR MIN TEMP:   9; 6HR MAX TEMP:  11;

WOODRUFF       CLOUDY    11   4  73 NW7       29.98S WCI   1
6HR MIN TEMP:   9; 6HR MAX TEMP:  11;

RHINELANDER    CLOUDY    11   1  64 VRB6      29.97F WCI   1
6HR MIN TEMP:   8; 6HR MAX TEMP:  11;

EAGLE RIVER    LGT SNOW  10   3  72 NW12      29.95F WCI  -4
6HR MIN TEMP:  10; 6HR MAX TEMP:  11;

LAND O LAKES   CLOUDY    12   2  66 N12G20    29.96F WCI  -2
6HR MIN TEMP:   9; 6HR MAX TEMP:  12;

PHILLIPS       CLOUDY     7  -1  67 NW5       30.02F WCI  -1
6HR MIN TEMP:   4; 6HR MAX TEMP:   8;

TOMAHAWK       MOSUNNY   11   1  63 NW8       30.01F WCI  -1
6HR MIN TEMP:   6; 6HR MAX TEMP:  11;

MEDFORD        CLOUDY     9  -1  64 W7        30.01F WCI  -3
6HR MIN TEMP:   4; 6HR MAX TEMP:   9;

MERRILL        SUNNY     13   0  57 N6        30.01F WCI   4
$$

WIZ029-030-035-036-043>047-121900-
CENTRAL WISCONSIN

CITY           SKY/WX    TMP DP  RH WIND       PRES   REMARKS
WAUSAU         SUNNY     13   1  59 NW8       30.01F WCI   2
6HR MIN TEMP:   9; 6HR MAX TEMP:  13;

MOSINEE        MOSUNNY   12   3  67 NW9       30.04F WCI   0
MARSHFIELD     PTSUNNY    9   1  70 NW10      30.04F WCI  -5
6HR MIN TEMP:   5; 6HR MAX TEMP:  11;

STEVENS POINT  SUNNY     12   0  60 NW8G18    30.04F WCI   0
6HR MIN TEMP:   9; 6HR MAX TEMP:  12;

WAUPACA        SUNNY     20   3  47 NW9       30.05F WCI  10
6HR MIN TEMP:  16; 6HR MAX TEMP:  21;

WAUTOMA        MOSUNNY   15   4  61 W14       30.07F WCI   0
6HR MIN TEMP:  12; 6HR MAX TEMP:  15;

WISC RAPIDS    SUNNY     13   2  61 NW13      30.07F WCI  -2
6HR MIN TEMP:   9; 6HR MAX TEMP:  13;

CAMP DOUGLAS   MOSUNNY   18   1  49 W13       30.09F WCI   4
$$

WIZ011>013-019>022-031-037>040-048>050-121900-
NORTHEAST WISCONSIN

CITY           SKY/WX    TMP DP  RH WIND       PRES   REMARKS
ANTIGO         CLOUDY    10   2  70 NW10      29.98F WCI  -4
6HR MIN TEMP:  10; 6HR MAX TEMP:  10;

SHAWANO        CLOUDY    19   6  57 NW10      30.03F WCI   7
6HR MIN TEMP:  17; 6HR MAX TEMP:  19;

OCONTO         CLOUDY    16   4  59 N5        30.02F WCI   9
6HR MIN TEMP:  13; 6HR MAX TEMP:  16;

STURGEON BAY   FLURRIES  16   5  62 NW17G26   30.00F WCI   0
6HR MIN TEMP:  12; 6HR MAX TEMP:  16; 6HR PCP: TRACE;

GREEN BAY      CLOUDY    18   8  65 NW12      30.03F WCI   5
6HR MIN TEMP:  16; 6HR MAX TEMP:  18;

MANITOWOC      CLOUDY    17   6  62 NW16      30.02F WCI   2
6HR MIN TEMP:  15; 6HR MAX TEMP:  17;

APPLETON       CLOUDY    16   1  53 NW10      30.02F WCI   3
CLINTONVILLE   CLOUDY    18   1  49 N12       30.03F WCI   5
OSHKOSH        CLOUDY    16   5  62 W10       30.04F WCI   4
6HR MIN TEMP:  16; 6HR MAX TEMP:  17;

$$

WIZ032>034-041-042-053>061-121900-
SOUTHWEST WISCONSIN

CITY           SKY/WX    TMP DP  RH WIND       PRES   REMARKS
LA CROSSE      PTSUNNY   19   4  51 NW9       30.16F WCI   8
6HR MIN TEMP:  11; 6HR MAX TEMP:  20;

SPARTA         MOSUNNY   17   3  55 W8        30.12F WCI   6
6HR MIN TEMP:   9; 6HR MAX TEMP:  17;

VIROQUA        SUNNY     16   5  61 NW9       30.09F WCI   4
6HR MIN TEMP:   8; 6HR MAX TEMP:  16;

BOSCOBEL       SUNNY     20   4  50 W6        30.14F WCI  12
6HR MIN TEMP:   9; 6HR MAX TEMP:  20;

PRAIRIE DU CHI SUNNY     20   4  49 W9        30.15F WCI   9
6HR MIN TEMP:  13; 6HR MAX TEMP:  20;

PLATTEVILLE    SUNNY     20   8  60 W12       30.11F WCI   8
6HR MIN TEMP:  12; 6HR MAX TEMP:  20;

$$

WIZ056-057-062-063-064-067-068-121900-
SOUTH CENTRAL WISCONSIN

CITY           SKY/WX    TMP DP  RH WIND       PRES   REMARKS
REEDSBURG      PTSUNNY   18   1  47 NW12G18   30.07F WCI   5
6HR MIN TEMP:  11; 6HR MAX TEMP:  18;

BARABOO/DELLS  PTSUNNY   17   1  49 NW9       30.07F WCI   6
6HR MIN TEMP:  11; 6HR MAX TEMP:  18;

LONE ROCK      SUNNY     18   5  57 W9        30.11F WCI   7
6HR MIN TEMP:  12; 6HR MAX TEMP:  18;

MINERAL POINT  SUNNY     21   5  49 W12       30.07F WCI   9
MADISON        MOSUNNY   18   5  57 NW9G21    30.07F WCI   7
6HR MIN TEMP:  13; 6HR MAX TEMP:  18;

MIDDLETON      SUNNY     20   4  50 NW10      30.07F WCI   8
6HR MIN TEMP:  15; 6HR MAX TEMP:  20;

WATERTOWN      PTSUNNY   17   7  62 W10G20    30.06F WCI   5
6HR MIN TEMP:  13; 6HR MAX TEMP:  18;

MONROE         SUNNY     21   3  45 NW12G17   30.06F WCI   9
JANESVILLE     MOSUNNY   23   3  42 NW13G18   30.08F WCI  11
$$

WIZ051-052-058>065-066-070>072-121900-
SOUTHEAST WISCONSIN

CITY           SKY/WX    TMP DP  RH WIND       PRES   REMARKS
MILWAUKEE      PTSUNNY   19   5  54 NW10G22   30.04F WCI   7
6HR MIN TEMP:  17; 6HR MAX TEMP:  21;

WAUKESHA       PTSUNNY   18   3  53 W17       30.05F WCI   2
MILWAUKEE/TIMM PTSUNNY   19   1  45 NW14      30.05F WCI   6
RACINE         PTSUNNY   20   5  52 NW16G23   30.06F WCI   6
6HR MIN TEMP:  16; 6HR MAX TEMP:  21;

BURLINGTON     SUNNY     34  26  71 NW13      30.05F WCI  25
6HR MIN TEMP:  26; 6HR MAX TEMP:  35;

KENOSHA        SUNNY     21   5  50 NW14G23   30.05F WCI   8
6HR MIN TEMP:  16; 6HR MAX TEMP:  21;

FOND DU LAC    CLOUDY    18   4  54 W14G20    30.04F WCI   4
6HR MIN TEMP:  16; 6HR MAX TEMP:  18; 6HR PCP: TRACE;

SHEBOYGAN      CLOUDY    17   7  64 NW10G22   30.02F WCI   5
6HR MIN TEMP:  14; 6HR MAX TEMP:  18;

WEST BEND      CLOUDY    18   5  57 NW13      30.03F WCI   4
JUNEAU         CLOUDY    14   4  64 W6        30.06F WCI   5
6HR MIN TEMP:  11; 6HR MAX TEMP:  15;

$$

LSZ147-162-121900-
LAKE SUPERIOR

STATION/POSITION TIME  TEMP    WIND        PRES    WAVE
                       AIR SEA DIR/SP/G            HT/PER
                 (UTC) (F)     (DEG/KT/KT) (MB)    (FT/S)
DEVILS ISLAND    1800   11     300/ 10/ 13 1019.9F
SAXON HARBOR     1730   11                 1018.6F
$$

LMZ867-665-643>646-121900-
LAKE MICHIGAN

STATION/POSITION TIME  TEMP    WIND        PRES    WAVE
                       AIR SEA DIR/SP/G            HT/PER
                 (UTC) (F)     (DEG/KT/KT) (MB)    (FT/S)
NORTHPORT PIER   1735   17     330/ 22     1015.2S
KEWAUNEE LAKESHO 1754   16     330/  7/ 1



USA.gov is the U.S. government's official web portal to all federal, state and local government web resources and services.